STARLINK-36992, 68149

Orbit data source: Space-Track

STARLINK-36992, 68149 is a payload satellite owned by SpaceX/Seattle (US) in SSO that was launched on Fri, 13 Mar 2026 UTC via an FALCON 9 launch vehicle from the Air Force Western Test Range (AFWTR). Payload-class satellites include a variety of spacecraft equipped with specific instruments for various scientific and technological missions. These include communications satellites like Starlink; space stations such as the ISS; scientific satellites like the Hubble; Earth observation satellites from companies like Planet Labs, Umbra, and HawkEye 360; GPS; miniature CubeSats for education and research; and military/defense satellites.

Loading next visibility...
Identifier
68149, 2026-049H
Orbit
SSO
Country
Flag of USUS
Related business
Manufacturer
SpaceX/Seattle
Mission
Operational spacecraft
Bus & Motor
STARLINK V2MO, Unknown motor
Mass
575 kg wet, ~530 kg dry
Launch date (UTC)
2026-03-13 (3 months ago)
Launch vehicle
FALCON 9
Launch site
Air Force Western Test Range (AFWTR)
Object type
Payload
Rocket body
Debris
Shape & HBR
Unknown shape, 17.7 m
Radar Cross Section
Large (>1 m²)

Expand to show TLE details & history
Last TLE update: 21 hours ago

TLE from 21 hours ago
0 STARLINK-36992
1 68149U 26049H   26170.96057259  .00017173  00000-0  53251-3 0  9996
2 68149  97.2837 192.3022 0002036  71.3790 288.7673 15.33476266 15328
Epoch: 2026-06-19T23:03Z
TLE epoch observation values (Epoch: 2026-06-19T23:03:13.471Z)
Latitude
-0.00012°
Longitude
-61.68596°
Altitude
468.114 km
Speed
7.632 km/s
True Right ascension
12h 49m 12s
True Declination
0° 00' 00"
Sunlit
Object was in daylight at epoch
Visualization orbit readout
Latitude
Unknown
Longitude
Unknown
Altitude
Unknown
Speed
Unknown
Apparent Right ascension
Unknown
Apparent Declination
Unknown
Sunlit
N/A
Visualization observer readout
Local Sidereal Time
07:19:27
Azimuth
Unknown
Elevation
Unknown
Doppler factor
Unknown
Orbital elements
Apogee altitude
463.786 km
Perigee altitude
461 km
Semi-major axis
6,840.53 km
Eccentricity
0.0002
Inclination
97.2837°
RAAN
192.3022°
Arg. of periapsis
71.379°
True anomaly
288.74521°
Mean anomaly
288.7673°
Eccentric anomaly
288.75625°
Mean motion
3.83626 °/min
Orbital period
93.84 mins
BSTAR
0.00053251
Loading maneuver chart data...
Computing Atmospheric mass density...
Loading historical data...
Loading historical data...
Loading historical data...
Loading historical data...
Loading historical data...
Loading historical data...
Loading historical data...

Documentation

Showing up to 5 results
|